Hourly Data Report for September 17, 2017

All times are specified in Local Standard Time (LST). Add 1 hour to adjust for Daylight Saving Time where and when it is observed.

DOAKTOWN AUTO RCS
NEW BRUNSWICK

46°35'06.090" N
66°00'35.071" W
43.00 m
8101201
71038
ADN

Download Data

Hourly Data (September 2017)
Hourly Data Report for September 17, 2017
Temp Definition
°C
Dew Point Temp Definition
°C
Rel Hum Definition
%
Wind Dir Definition
10's deg

Wind Spd Definition
km/h
Visibility Definition
km
Stn Press Definition
kPa
Hmdx Definition


Wind Chill Definition


Weather Definition


TIME
00:00 13.6 10.7 82 2 4   101.71     LegendNANA
01:00 13.2 10.6 84 7 5   101.63     LegendNANA
02:00 13.2 10.5 84 1 4   101.66     LegendNANA
03:00 12.6 10.8 89 3 5   101.61     LegendNANA
04:00 12.7 11.0 89 3 5   101.59     LegendNANA
05:00 12.6 11.0 90 3 3   101.62     LegendNANA
06:00 12.6 10.9 89   0   101.68     LegendNANA
07:00 12.8 10.9 88 7 3   101.69     LegendNANA
08:00 13.2 10.9 86 7 3   101.72     LegendNANA
09:00 13.7 11.2 85 7 4   101.69     LegendNANA
10:00 14.4 11.4 82 6 4   101.68     LegendNANA
11:00 15.1 11.9 81 16 4   101.67     LegendNANA
12:00 16.0 12.4 79 7 6   101.63     LegendNANA
13:00 16.9 12.6 76 9 2   101.57     LegendNANA
14:00 18.3 13.2 72 8 3   101.52     LegendNANA
15:00 18.3 13.5 73 5 10   101.51     LegendNANA
16:00 18.0 13.6 76 5 11   101.51     LegendNANA
17:00 16.9 13.9 82 5 12   101.52     LegendNANA
18:00 16.1 13.8 87 4 8   101.53     LegendNANA
19:00 15.5 13.8 89 5 9   101.57     LegendNANA
20:00 14.6 13.3 92 4 10   101.62     LegendNANA
21:00 14.2 13.3 94 4 6   101.64     LegendNANA
22:00 14.0 13.1 95 5 4   101.65     LegendNANA
23:00 13.8 13.1 95 4 4   101.68     LegendNANA

Notes on Data Quality.

Legend

  • E = Estimated
  • M = Missing
  • NA = Not Available
  • ‡ = Partner data that is not subject to review by the National Climate Archives
Date modified: